Hourly Weather Alho

Today, 3 March, Wednesday

Time Temperature Precipitation Wind Pressure Humidity
00:00 -3°C° 0 mm 4 mps 756 mmHg 88%
01:00 -3°C° 0 mm 4 mps 756 mmHg 88%
02:00 -4°C° 0 mm 4 mps 756 mmHg 90%
03:00 -4°C° 0 mm 4 mps 755 mmHg 91%
04:00 -4°C° 0 mm 4 mps 755 mmHg 91%
05:00 -5°C° 0 mm 4 mps 754 mmHg 91%
06:00 -5°C° 0 mm 4 mps 754 mmHg 92%
07:00 -5°C° 0 mm 4 mps 754 mmHg 93%
08:00 -5°C° 0 mm 4 mps 753 mmHg 93%
09:00 -4°C° 0 mm 4 mps 753 mmHg 91%
10:00 -4°C° 0 mm 5 mps 752 mmHg 89%
11:00 -2°C° 0 mm 5 mps 751 mmHg 87%
12:00 -2°C° 0 mm 5 mps 751 mmHg 88%
13:00 -1°C° 0 mm 5 mps 750 mmHg 88%
14:00 -2°C° 0 mm 6 mps 749 mmHg 88%
15:00 -1°C° 0 mm 5 mps 748 mmHg 86%
16:00 -1°C° 0 mm 5 mps 747 mmHg 85%
17:00 0°C° 0 mm 5 mps 746 mmHg 84%
18:00 -1°C° 0 mm 5 mps 746 mmHg 83%
19:00 -2°C° 0 mm 5 mps 746 mmHg 82%
20:00 -3°C° 0 mm 4 mps 746 mmHg 82%
21:00 -4°C° 0 mm 4 mps 746 mmHg 81%
22:00 -5°C° 0 mm 4 mps 746 mmHg 80%
23:00 -7°C° 0 mm 4 mps 746 mmHg 79%

Tomorrow, 4 March, Thursday

Time Temperature Precipitation Wind Pressure Humidity
00:00 -8°C° 0 mm 4 mps 746 mmHg 82%
01:00 -8°C° 0 mm 4 mps 746 mmHg 84%
02:00 -8°C° 0 mm 3 mps 746 mmHg 86%
03:00 -8°C° 0 mm 3 mps 746 mmHg 88%
04:00 -9°C° 0 mm 3 mps 746 mmHg 91%
05:00 -10°C° 0 mm 3 mps 746 mmHg 93%
06:00 -10°C° 0 mm 3 mps 746 mmHg 93%
07:00 -10°C° 0 mm 3 mps 746 mmHg 94%
08:00 -10°C° 0 mm 3 mps 747 mmHg 94%
09:00 -9°C° 0 mm 3 mps 747 mmHg 92%
10:00 -8°C° 0 mm 3 mps 747 mmHg 90%
11:00 -7°C° 0 mm 3 mps 747 mmHg 88%
12:00 -7°C° 0 mm 3 mps 747 mmHg 87%
13:00 -7°C° 0 mm 3 mps 747 mmHg 86%
14:00 -7°C° 0 mm 4 mps 747 mmHg 85%
15:00 -7°C° 0 mm 3 mps 747 mmHg 85%
16:00 -7°C° 0 mm 3 mps 747 mmHg 85%
17:00 -8°C° 0 mm 3 mps 747 mmHg 85%
18:00 -9°C° 0 mm 3 mps 748 mmHg 87%
19:00 -9°C° 0 mm 3 mps 748 mmHg 89%
20:00 -10°C° 0 mm 3 mps 748 mmHg 91%
21:00 -10°C° 0 mm 3 mps 748 mmHg 91%
22:00 -12°C° 0 mm 3 mps 748 mmHg 92%
23:00 -12°C° 0 mm 3 mps 748 mmHg 93%

Day after tomorrow, 5 March, Friday

Time Temperature Precipitation Wind Pressure Humidity
00:00 -13°C° 0 mm 3 mps 749 mmHg 93%
01:00 -13°C° 0 mm 3 mps 749 mmHg 93%
02:00 -13°C° 0 mm 3 mps 749 mmHg 93%
03:00 -14°C° 0 mm 3 mps 750 mmHg 94%
04:00 -14°C° 0 mm 3 mps 750 mmHg 94%
05:00 -14°C° 0 mm 3 mps 750 mmHg 94%
06:00 -14°C° 0 mm 3 mps 750 mmHg 93%
07:00 -13°C° 0 mm 3 mps 751 mmHg 93%
08:00 -13°C° 0 mm 3 mps 751 mmHg 92%
09:00 -12°C° 0 mm 3 mps 752 mmHg 87%
10:00 -9°C° 0 mm 2 mps 752 mmHg 82%
11:00 -8°C° 0 mm 2 mps 753 mmHg 77%
12:00 -8°C° 0 mm 2 mps 753 mmHg 75%
13:00 -8°C° 0 mm 3 mps 754 mmHg 72%
14:00 -8°C° 0 mm 3 mps 754 mmHg 70%
15:00 -8°C° 0 mm 3 mps 754 mmHg 76%
16:00 -8°C° 0 mm 2 mps 754 mmHg 83%
17:00 -8°C° 0 mm 2 mps 754 mmHg 89%
18:00 -9°C° 0 mm 2 mps 755 mmHg 91%
19:00 -10°C° 0 mm 2 mps 755 mmHg 92%
20:00 -12°C° 0 mm 2 mps 756 mmHg 93%
21:00 -12°C° 0 mm 2 mps 756 mmHg 94%
22:00 -13°C° 0 mm 2 mps 756 mmHg 94%
23:00 -13°C° 0 mm 2 mps 756 mmHg 94%

6 March, Saturday

Time Temperature Precipitation Wind Pressure Humidity
00:00 -13°C° 0 mm 2 mps 756 mmHg 94%
01:00 -14°C° 0 mm 2 mps 756 mmHg 94%
02:00 -14°C° 0 mm 2 mps 756 mmHg 94%
03:00 -14°C° 0 mm 2 mps 756 mmHg 94%
04:00 -14°C° 0 mm 2 mps 756 mmHg 94%
05:00 -14°C° 0 mm 2 mps 755 mmHg 94%
06:00 -13°C° 0 mm 2 mps 755 mmHg 93%
07:00 -14°C° 0 mm 3 mps 754 mmHg 92%
08:00 -13°C° 0 mm 3 mps 754 mmHg 91%
09:00 -12°C° 0 mm 3 mps 753 mmHg 89%
10:00 -10°C° 0 mm 4 mps 752 mmHg 86%
11:00 -8°C° 0 mm 5 mps 751 mmHg 84%
12:00 -8°C° 0.2 mm 5 mps 750 mmHg 86%
13:00 -8°C° 0.2 mm 6 mps 748 mmHg 89%
14:00 -8°C° 0.2 mm 7 mps 746 mmHg 92%
15:00 -7°C° 1 mm 7 mps 745 mmHg 93%
16:00 -7°C° 1 mm 7 mps 743 mmHg 93%
17:00 -6°C° 1 mm 6 mps 741 mmHg 94%
18:00 -5°C° 0.6 mm 6 mps 739 mmHg 94%
19:00 -4°C° 0.6 mm 6 mps 738 mmHg 94%
20:00 -4°C° 0.6 mm 6 mps 736 mmHg 95%
21:00 -4°C° 0.6 mm 6 mps 736 mmHg 89%
22:00 -4°C° 0.6 mm 6 mps 735 mmHg 83%
23:00 -4°C° 0.6 mm 6 mps 734 mmHg 76%

7 March, Sunday

Time Temperature Precipitation Wind Pressure Humidity
00:00 -8°C° 0.1 mm 6 mps 734 mmHg 75%
01:00 -11°C° 0.1 mm 7 mps 734 mmHg 73%
02:00 -14°C° 0.1 mm 7 mps 735 mmHg 71%
03:00 -15°C° 0 mm 6 mps 734 mmHg 72%
04:00 -15°C° 0 mm 5 mps 734 mmHg 73%
05:00 -15°C° 0 mm 5 mps 734 mmHg 74%
06:00 -15°C° 0 mm 5 mps 734 mmHg 76%
07:00 -15°C° 0 mm 5 mps 733 mmHg 79%
08:00 -15°C° 0 mm 5 mps 732 mmHg 81%
09:00 -14°C° 0.3 mm 5 mps 733 mmHg 84%
10:00 -12°C° 0.3 mm 4 mps 733 mmHg 88%
11:00 -10°C° 0.3 mm 3 mps 733 mmHg 92%
12:00 -11°C° 0.2 mm 4 mps 734 mmHg 88%
13:00 -12°C° 0.2 mm 5 mps 736 mmHg 84%
14:00 -12°C° 0.2 mm 5 mps 737 mmHg 80%
15:00 -12°C° 0 mm 5 mps 738 mmHg 82%
16:00 -12°C° 0 mm 5 mps 740 mmHg 83%
17:00 -12°C° 0 mm 5 mps 741 mmHg 85%
18:00 -13°C° 0 mm 5 mps 742 mmHg 86%
19:00 -13°C° 0 mm 5 mps 744 mmHg 87%
20:00 -14°C° 0 mm 5 mps 745 mmHg 87%
21:00 -15°C° 0 mm 5 mps 746 mmHg 87%
22:00 -17°C° 0 mm 5 mps 747 mmHg 87%
23:00 -18°C° 0 mm 5 mps 748 mmHg 87%

8 March, Monday

Time Temperature Precipitation Wind Pressure Humidity
00:00 -19°C° 0 mm 5 mps 749 mmHg 87%
01:00 -20°C° 0 mm 5 mps 750 mmHg 88%
02:00 -21°C° 0 mm 5 mps 751 mmHg 88%
03:00 -21°C° 0 mm 5 mps 752 mmHg 88%
04:00 -22°C° 0 mm 4 mps 752 mmHg 88%
05:00 -23°C° 0 mm 4 mps 753 mmHg 87%
06:00 -23°C° 0 mm 4 mps 754 mmHg 87%
07:00 -23°C° 0 mm 4 mps 754 mmHg 88%
08:00 -23°C° 0 mm 4 mps 755 mmHg 88%
09:00 -22°C° 0 mm 4 mps 756 mmHg 86%
10:00 -19°C° 0 mm 3 mps 756 mmHg 85%
11:00 -17°C° 0 mm 3 mps 757 mmHg 83%
12:00 -16°C° 0 mm 3 mps 757 mmHg 82%
13:00 -15°C° 0 mm 3 mps 757 mmHg 81%
14:00 -14°C° 0 mm 3 mps 758 mmHg 80%
15:00 -14°C° 0 mm 3 mps 758 mmHg 81%
16:00 -14°C° 0 mm 3 mps 758 mmHg 83%
17:00 -14°C° 0 mm 3 mps 758 mmHg 84%
18:00 -14°C° 0 mm 2 mps 758 mmHg 86%
19:00 -15°C° 0 mm 2 mps 759 mmHg 89%
20:00 -17°C° 0 mm 2 mps 759 mmHg 91%
21:00 -17°C° 0 mm 2 mps 759 mmHg 91%
22:00 -15°C° 0 mm 1 mps 759 mmHg 91%
23:00 -15°C° 0 mm 1 mps 760 mmHg 91%
Show more